Location: Fours
(44.3167°N, 6.7000°E)
Time: 21:24:11
(UTC+00:00)

N. Korean satellite - Pass Details

Date: 01 October 2021
Orbit: 450 x 495 km, 97.3° (Epoch: 23 October)

Event Time Altitude Azimuth Distance (km) Brightness Sun altitude
Rises 03:51:32 0° 31° (NNE) 2,551 10.9 -18.5°
Reaches altitude 10° 03:54:18 10° 55° (NE) 1,674 10.3 -18.0°
Maximum altitude 03:56:28 15° 92° (E) 1,384 9.9 -17.6°
Drops below altitude 10° 03:58:39 10° 129° (SE) 1,678 9.8 -17.2°
Sets 04:01:25 0° 153° (SSE) 2,559 10.4 -16.8°
